CW6391 Weather Reports


Display with metric or nautical units.
time (UTC)temp
F
wind
direction
speed
MPH
gust
MPH
rain 1hr
in
rain 24hr
in
rain mn
in
humidity
%
barometer
mb
20260901005607 59 191 1.0 3.0 0.00 0.51 0.00 86 1018.4
20260901005107 59 153 0.0 3.0 0.00 0.51 0.00 86 1018.4
20260901004610 59 233 1.0 4.0 0.00 0.51 0.00 86 1018.4
20260901004111 59 262 1.0 3.0 0.00 0.51 0.00 86 1018.4
20260901003607 59 283 0.0 3.0 0.00 0.51 0.00 86 1018.4
20260901003110 59 226 0.0 3.0 0.00 0.51 0.00 86 1018.4
20260901002607 59 267 0.0 3.0 0.00 0.51 0.00 86 1018.4
20260901002113 59 234 0.0 4.0 0.00 0.51 0.00 86 1018.4
20260901001607 59 255 1.0 4.0 0.00 0.51 0.00 86 1018.4
20260901001110 59 251 2.0 4.0 0.00 0.51 0.00 86 1018.4
20260901000607 59 239 1.0 6.0 0.00 0.51 0.00 86 1018.4
20260901000107 59 242 2.0 5.0 0.00 0.51 0.00 86 1018.4
20260831235610 59 260 1.0 3.0 0.00 0.51 0.00 86 1018.4
20260831235107 59 246 1.0 6.0 0.00 0.51 0.00 86 1018.4
20260831234608 59 237 1.0 6.0 0.00 0.51 0.00 85 1018.4
20260831234110 59 285 0.0 2.0 0.00 0.51 0.00 85 1018.4
20260831233613 59 253 1.0 3.0 0.00 0.51 0.00 85 1018.4
20260831233114 59 247 1.0 3.0 0.00 0.51 0.00 85 1018.4
20260831232607 59 256 0.0 4.0 0.00 0.51 0.00 84 1018.4
20260831232110 60 241 1.0 5.0 0.00 0.51 0.00 84 1018.4
20260831231607 60 251 2.0 5.0 0.00 0.51 0.00 84 1018.4
20260831231107 60 257 1.0 4.0 0.00 0.51 0.00 84 1018.4
20260831230613 60 268 1.0 2.0 0.00 0.51 0.00 84 1018.4
20260831230107 60 222 1.0 3.0 0.00 0.51 0.00 84 1018.4
20260831225613 60 275 1.0 3.0 0.00 0.51 0.00 84 1018.4
20260831225107 60 265 1.0 4.0 0.00 0.51 0.00 84 1018.4
20260831224614 60 297 0.0 3.0 0.00 0.51 0.00 84 1018.4
20260831224111 60 277 1.0 3.0 0.00 0.51 0.00 84 1018.4
20260831223607 60 197 1.0 6.0 0.00 0.51 0.00 84 1018.4
20260831223107 60 288 2.0 6.0 0.00 0.51 0.00 84 1018.4
20260831222610 60 305 1.0 3.0 0.00 0.51 0.00 84 1018.4
20260831222116 60 303 1.0 2.0 0.00 0.51 0.00 83 1018.4
20260831221607 60 207 1.0 2.0 0.01 0.51 0.00 83 1018.4
20260831221110 60 230 0.0 2.0 0.08 0.51 0.00 82 1018.4
20260831220613 60 128 0.0 2.0 0.08 0.51 0.00 81 1018.4
20260831220107 60 270 0.0 6.0 0.08 0.51 0.00 80 1018.1
20260831215608 60 259 3.0 6.0 0.08 0.51 0.00 79 1018.4
20260831215107 60 285 2.0 6.0 0.08 0.51 0.00 79 1018.4
20260831214613 60 292 2.0 9.0 0.08 0.51 0.00 78 1018.4
20260831214107 61 280 1.0 6.0 0.08 0.51 0.00 78 1018.4
20260831213610 61 287 3.0 6.0 0.08 0.51 0.00 77 1018.4
20260831213107 61 299 1.0 11.0 0.08 0.51 0.00 76 1018.1
20260831212607 61 272 4.0 11.0 0.08 0.51 0.00 75 1018.4
20260831212114 62 295 4.0 9.0 0.08 0.51 0.00 75 1018.4
20260831211616 63 247 1.0 7.0 0.06 0.49 0.00 75 1018.4
20260831211107 63 247 3.0 10.0 0.00 0.42 0.00 68 1018.1
20260831210607 63 249 3.0 10.0 0.00 0.42 0.00 68 1017.7
20260831210110 63 230 1.0 5.0 0.00 0.42 0.00 67 1017.7
20260831205607 63 242 1.0 6.0 0.00 0.42 0.00 67 1017.7
20260831205110 63 264 2.0 5.0 0.00 0.42 0.00 67 1017.7
20260831204610 64 219 1.0 7.0 0.00 0.42 0.00 66 1017.7
20260831204117 64 239 2.0 7.0 0.00 0.42 0.00 66 1017.4
20260831203610 64 235 1.0 6.0 0.00 0.42 0.00 65 1017.4
20260831203107 64 289 1.0 6.0 0.00 0.42 0.00 65 1017.4
20260831202613 64 236 1.0 9.0 0.00 0.42 0.00 64 1017.4
20260831202107 65 220 1.0 6.0 0.00 0.42 0.00 64 1017.4
20260831201613 65 245 2.0 8.0 0.00 0.42 0.00 63 1017.1
20260831201110 65 223 3.0 9.0 0.00 0.42 0.00 62 1017.1
20260831200607 65 226 4.0 9.0 0.00 0.42 0.00 62 1017.1
20260831200107 65 277 1.0 9.0 0.00 0.42 0.00 61 1017.1
20260831195607 65 250 2.0 13.0 0.00 0.42 0.00 61 1017.1
20260831195110 66 256 4.0 13.0 0.00 0.42 0.00 60 1017.1
20260831194607 66 258 4.0 9.0 0.00 0.42 0.00 59 1017.1
20260831194107 66 256 2.0 9.0 0.00 0.42 0.00 59 1016.7
20260831193607 66 240 3.0 12.0 0.00 0.42 0.00 58 1016.7
20260831193110 66 248 2.0 12.0 0.00 0.42 0.00 58 1016.7
20260831192607 66 257 4.0 9.0 0.00 0.42 0.00 57 1016.7
20260831192110 66 238 4.0 13.0 0.00 0.42 0.00 56 1016.7
20260831191613 66 245 5.0 13.0 0.00 0.42 0.00 55 1016.3
20260831191107 67 266 2.0 12.0 0.00 0.42 0.00 54 1016.3
20260831190607 67 242 1.0 9.0 0.00 0.42 0.00 53 1016.3
20260831190111 67 271 3.0 18.0 0.00 0.42 0.00 52 1016.3
20260831185607 67 266 4.0 18.0 0.00 0.42 0.00 51 1016.7
20260831185110 68 278 4.0 12.0 0.00 0.42 0.00 52 1016.7
20260831184608 68 265 4.0 11.0 0.00 0.42 0.00 53 1016.3
20260831184110 68 281 3.0 11.0 0.00 0.42 0.00 52 1016.3
20260831183607 69 229 2.0 11.0 0.00 0.42 0.00 51 1016.3
20260831183107 69 261 4.0 12.0 0.00 0.42 0.00 50 1016.3
20260831182610 70 254 3.0 9.0 0.00 0.42 0.00 48 1016.0
20260831182107 70 232 2.0 7.0 0.00 0.42 0.00 46 1016.0
20260831181607 70 228 3.0 10.0 0.00 0.42 0.00 45 1015.6
20260831181107 71 244 2.0 8.0 0.00 0.42 0.00 45 1015.3
20260831180610 71 268 2.0 8.0 0.00 0.42 0.00 45 1015.0
20260831180111 71 268 1.0 13.0 0.00 0.42 0.00 44 1015.0
20260831175613 71 227 3.0 9.0 0.00 0.42 0.00 44 1014.6
20260831175110 71 243 2.0 5.0 0.00 0.42 0.00 44 1014.6
20260831174610 71 229 2.0 6.0 0.00 0.42 0.00 44 1015.0
20260831174107 71 250 2.0 7.0 0.00 0.42 0.00 43 1015.0
20260831173608 71 233 3.0 9.0 0.00 0.42 0.00 43 1015.0
20260831173110 71 259 2.0 5.0 0.00 0.42 0.00 43 1015.0
20260831172610 71 232 1.0 10.0 0.00 0.42 0.00 43 1015.0
20260831172107 71 257 2.0 6.0 0.00 0.42 0.00 43 1015.0
20260831171607 72 243 2.0 7.0 0.00 0.42 0.00 42 1015.0
20260831171110 72 217 1.0 8.0 0.00 0.42 0.00 42 1015.0
20260831170607 72 260 2.0 8.0 0.00 0.42 0.00 41 1015.0
20260831170108 72 238 2.0 7.0 0.00 0.42 0.00 41 1015.0
20260831165607 72 258 2.0 7.0 0.00 0.42 0.00 40 1015.0
20260831165107 73 233 2.0 8.0 0.00 0.42 0.00 40 1015.0
20260831164607 73 250 1.0 9.0 0.00 0.42 0.00 40 1015.0
20260831164110 73 216 2.0 10.0 0.00 0.42 0.00 39 1015.0
20260831163608 73 251 4.0 10.0 0.00 0.42 0.00 38 1015.0
20260831163110 74 266 4.0 14.0 0.00 0.42 0.00 38 1015.0
20260831162610 74 231 5.0 13.0 0.00 0.42 0.00 38 1015.0
20260831162107 74 259 4.0 12.0 0.00 0.42 0.00 37 1015.0
20260831161616 74 265 2.0 12.0 0.00 0.42 0.00 38 1015.0
20260831161107 74 267 4.0 14.0 0.00 0.42 0.00 37 1015.0
20260831160613 74 269 5.0 14.0 0.00 0.42 0.00 37 1015.0
20260831160108 75 249 3.0 12.0 0.00 0.42 0.00 36 1015.0
20260831155607 74 258 4.0 14.0 0.00 0.42 0.00 36 1015.0
20260831155110 74 254 5.0 23.0 0.00 0.42 0.00 36 1015.0
20260831154611 74 235 2.0 11.0 0.00 0.42 0.00 37 1015.0
20260831154113 74 264 4.0 14.0 0.00 0.42 0.00 36 1015.0
20260831153610 74 247 3.0 15.0 0.00 0.42 0.00 36 1015.0
20260831153110 75 193 3.0 15.0 0.00 0.42 0.00 35 1015.0
20260831152607 76 242 6.0 17.0 0.00 0.42 0.00 34 1015.0
20260831152110 76 266 4.0 17.0 0.00 0.42 0.00 35 1015.0
20260831151607 76 251 3.0 17.0 0.00 0.42 0.00 37 1015.0
20260831151110 76 266 3.0 8.0 0.00 0.42 0.00 38 1015.0
20260831150607 75 261 2.0 11.0 0.00 0.42 0.00 39 1015.0
20260831150110 76 253 5.0 14.0 0.00 0.42 0.00 38 1015.0
20260831145607 76 261 4.0 13.0 0.00 0.42 0.00 39 1015.0
20260831145107 76 249 4.0 14.0 0.00 0.42 0.00 39 1015.0
20260831144613 76 279 7.0 14.0 0.00 0.42 0.00 39 1015.0
20260831144107 77 258 4.0 13.0 0.00 0.42 0.00 39 1015.0
20260831143614 77 243 3.0 18.0 0.00 0.42 0.00 38 1015.0
20260831143107 78 249 5.0 11.0 0.00 0.42 0.00 38 1015.0
20260831142611 78 247 5.0 12.0 0.00 0.42 0.00 38 1015.0
20260831142107 79 231 2.0 10.0 0.00 0.42 0.00 40 1015.0
20260831141613 77 254 2.0 9.0 0.00 0.42 0.00 41 1015.0
20260831141110 76 178 1.0 11.0 0.00 0.42 0.00 41 1015.0
20260831140610 75 269 4.0 13.0 0.00 0.42 0.00 42 1015.0
20260831140107 76 219 5.0 9.0 0.00 0.42 0.00 41 1015.0
20260831135608 76 235 3.0 9.0 0.00 0.42 0.00 41 1015.0
20260831135107 76 220 3.0 12.0 0.00 0.42 0.00 41 1015.0
20260831134610 78 207 3.0 10.0 0.00 0.42 0.00 40 1015.0
20260831134113 76 187 3.0 15.0 0.00 0.42 0.00 41 1015.0
20260831133607 76 223 5.0 15.0 0.00 0.42 0.00 41 1015.0
20260831133114 77 225 3.0 9.0 0.00 0.42 0.00 42 1015.0
20260831132607 75 258 3.0 10.0 0.00 0.42 0.00 43 1015.0
20260831132107 75 231 4.0 11.0 0.00 0.42 0.00 43 1015.0
20260831131611 75 243 4.0 11.0 0.00 0.42 0.00 43 1015.0
20260831131108 76 191 3.0 11.0 0.00 0.42 0.00 42 1015.0
20260831130610 76 230 4.0 9.0 0.00 0.42 0.00 44 1015.0
20260831130110 75 220 1.0 12.0 0.00 0.42 0.00 44 1015.3
20260831125613 76 181 2.0 14.0 0.00 0.42 0.00 42 1015.0
20260831125107 76 226 3.0 8.0 0.00 0.42 0.00 43 1015.0
20260831124610 74 209 3.0 11.0 0.00 0.42 0.00 45 1015.0
20260831124107 75 266 5.0 9.0 0.00 0.42 0.00 45 1015.0
20260831123607 74 251 2.0 10.0 0.00 0.42 0.00 47 1015.3
20260831123107 73 235 4.0 12.0 0.00 0.42 0.00 47 1015.3
20260831122610 73 243 3.0 7.0 0.00 0.42 0.00 47 1015.3
20260831122110 73 222 1.0 9.0 0.00 0.42 0.00 48 1015.3
20260831121608 73 228 2.0 11.0 0.00 0.42 0.00 49 1015.3
20260831121111 72 244 4.0 11.0 0.00 0.42 0.00 47 1015.3
20260831120610 73 262 5.0 14.0 0.00 0.42 0.00 48 1015.3
20260831120116 73 240 2.0 9.0 0.00 0.42 0.00 49 1015.3
20260831115607 73 251 3.0 8.0 0.00 0.42 0.00 48 1015.3
20260831115111 73 226 2.0 9.0 0.00 0.42 0.00 49 1015.3
20260831114610 73 243 1.0 9.0 0.00 0.42 0.00 48 1015.3
20260831114110 73 264 2.0 11.0 0.00 0.42 0.00 47 1015.3
20260831113610 73 220 2.0 7.0 0.00 0.42 0.00 46 1015.3
20260831113116 74 251 2.0 10.0 0.00 0.42 0.00 46 1015.3
20260831112607 74 246 3.0 11.0 0.00 0.42 0.00 45 1015.3
20260831112113 75 234 2.0 13.0 0.00 0.42 0.00 42 1015.3
20260831111607 75 239 3.0 16.0 0.00 0.42 0.00 45 1015.3
20260831111107 75 223 2.0 9.0 0.00 0.42 0.00 47 1015.3
20260831110610 75 243 1.0 8.0 0.00 0.42 0.00 47 1015.3
20260831110108 74 197 3.0 13.0 0.00 0.42 0.00 49 1015.3
20260831105610 73 237 3.0 14.0 0.00 0.42 0.00 50 1015.3
20260831105107 73 253 3.0 11.0 0.00 0.42 0.00 51 1015.3
20260831104613 73 237 4.0 11.0 0.00 0.42 0.00 50 1015.3
20260831104107 72 274 5.0 13.0 0.00 0.42 0.00 54 1015.3
20260831103613 72 279 6.0 12.0 0.00 0.42 0.00 52 1015.3
20260831103107 73 246 3.0 16.0 0.00 0.42 0.00 52 1015.3
20260831102613 73 231 1.0 12.0 0.00 0.42 0.00 54 1015.3
20260831102116 74 241 2.0 8.0 0.00 0.42 0.00 54 1015.3
20260831101607 73 292 3.0 10.0 0.00 0.42 0.00 53 1015.3
20260831101107 73 248 3.0 11.0 0.00 0.42 0.00 53 1015.3
20260831100613 72 242 2.0 10.0 0.00 0.42 0.00 58 1015.3
20260831100107 71 268 4.0 10.0 0.00 0.42 0.00 57 1015.3
20260831095607 72 272 3.0 8.0 0.00 0.42 0.00 57 1015.3
20260831095110 71 246 1.0 5.0 0.00 0.42 0.00 59 1015.3
20260831094610 69 239 2.0 10.0 0.00 0.42 0.00 61 1015.3
20260831094110 70 254 3.0 8.0 0.00 0.42 0.00 60 1015.6
20260831093610 70 206 3.0 10.0 0.00 0.42 0.00 58 1015.6
20260831093107 71 242 2.0 11.0 0.00 0.42 0.00 58 1015.6
20260831092607 71 257 4.0 9.0 0.00 0.42 0.00 57 1015.6
20260831092107 71 246 2.0 11.0 0.00 0.42 0.00 59 1015.6
20260831091607 71 207 2.0 10.0 0.00 0.42 0.00 58 1015.6
20260831091107 71 269 4.0 10.0 0.00 0.42 0.00 57 1015.6
20260831090607 71 266 3.0 9.0 0.00 0.42 0.00 58 1015.6
20260831090107 70 274 3.0 9.0 0.00 0.42 0.00 60 1015.6
20260831085610 70 231 4.0 9.0 0.00 0.42 0.00 60 1015.3
20260831085107 70 249 3.0 13.0 0.00 0.42 0.00 60 1015.6
20260831084607 70 233 3.0 16.0 0.00 0.42 0.00 60 1015.3
20260831084107 69 212 6.0 16.0 0.00 0.42 0.00 62 1015.3
20260831083610 69 251 3.0 10.0 0.00 0.42 0.00 62 1015.3
20260831083107 69 265 3.0 13.0 0.00 0.42 0.00 62 1015.3
20260831082610 68 254 5.0 13.0 0.00 0.42 0.00 63 1015.3
20260831082113 68 237 3.0 8.0 0.00 0.42 0.00 64 1015.3
20260831081608 68 246 4.0 11.0 0.00 0.42 0.00 65 1015.3
20260831081113 68 241 3.0 8.0 0.00 0.42 0.00 65 1015.3
20260831080610 68 246 3.0 8.0 0.00 0.42 0.00 66 1015.3
20260831080113 68 232 2.0 8.0 0.00 0.42 0.00 67 1015.3
20260831075613 68 298 2.0 12.0 0.00 0.42 0.00 70 1015.3
20260831075107 67 259 5.0 13.0 0.00 0.42 0.00 69 1015.0
20260831074610 67 237 4.0 10.0 0.00 0.42 0.00 71 1015.0
20260831074107 67 236 4.0 9.0 0.00 0.42 0.00 71 1015.0
20260831073607 67 163 1.0 9.0 0.00 0.42 0.00 75 1015.0
20260831073113 66 247 4.0 9.0 0.00 0.42 0.00 75 1015.0
20260831072610 65 222 1.0 5.0 0.00 0.42 0.00 79 1015.0
20260831072107 65 238 1.0 8.0 0.00 0.42 0.00 81 1015.0
20260831071610 64 248 1.0 8.0 0.00 0.42 0.00 82 1015.0
20260831071110 64 233 3.0 8.0 0.00 0.42 0.00 82 1015.0
20260831070607 64 241 3.0 7.0 0.00 0.42 0.00 83 1014.6
20260831070110 64 252 2.0 10.0 0.00 0.42 0.00 83 1014.6
20260831065607 64 238 3.0 10.0 0.00 0.42 0.00 84 1014.6
20260831065110 63 222 2.0 7.0 0.00 0.42 0.00 85 1014.2
20260831064616 63 242 3.0 12.0 0.00 0.42 0.00 85 1014.2
20260831064110 63 276 1.0 9.0 0.00 0.42 0.00 87 1014.2
20260831063607 63 215 2.0 7.0 0.00 0.42 0.00 87 1014.2
20260831063113 63 259 2.0 7.0 0.00 0.42 0.00 88 1014.2
20260831062610 63 260 2.0 5.0 0.00 0.42 0.00 88 1014.2
20260831062108 62 247 2.0 5.0 0.00 0.42 0.00 89 1014.2
20260831061610 62 271 1.0 4.0 0.00 0.42 0.00 89 1014.2
20260831061107 62 231 1.0 5.0 0.00 0.42 0.00 89 1013.9
20260831060613 62 257 2.0 6.0 0.00 0.42 0.00 89 1013.9
20260831060107 62 250 1.0 3.0 0.00 0.42 0.00 89 1013.9
20260831055607 62 293 0.0 1.0 0.00 0.42 0.00 89 1013.9
20260831055113 62 222 0.0 4.0 0.00 0.42 0.00 89 1013.9
20260831054613 62 174 1.0 2.0 0.00 0.42 0.00 89 1013.5
20260831054107 62 202 1.0 3.0 0.00 0.42 0.00 89 1013.5
20260831053613 61 186 1.0 4.0 0.00 0.42 0.00 89 1013.5
20260831053113 61 203 2.0 5.0 0.00 0.42 0.00 89 1013.5
20260831052607 61 197 2.0 5.0 0.00 0.42 0.00 90 1013.5
20260831052110 61 226 0.0 3.0 0.00 0.42 0.00 90 1013.5
20260831051607 61 181 1.0 4.0 0.00 0.42 0.00 90 1013.5
20260831051107 61 173 1.0 5.0 0.00 0.42 0.00 90 1013.2
20260831050607 61 202 1.0 5.0 0.00 0.42 0.00 90 1013.5
20260831050108 61 151 1.0 5.0 0.00 0.42 0.00 90 1013.2
20260831045607 61 166 2.0 4.0 0.00 0.42 0.00 90 1013.2
20260831045107 61 169 1.0 3.0 0.01 0.42 0.00 90 1013.2
20260831044608 61 175 1.0 4.0 0.03 0.42 0.00 90 1013.2
20260831044110 61 163 1.0 3.0 0.05 0.42 0.00 90 1013.2
20260831043607 61 125 2.0 3.0 0.07 0.42 0.00 90 1013.2
20260831043113 61 130 1.0 4.0 0.08 0.42 0.00 90 1013.2
20260831042607 61 165 2.0 3.0 0.14 0.42 0.00 90 1013.2
20260831042107 61 127 1.0 5.0 0.27 0.42 0.00 90 1012.9
20260831041607 61 157 1.0 2.0 0.31 0.42 0.00 90 1013.2
20260831041110 61 145 1.0 3.0 0.34 0.42 0.00 90 1013.2
20260831040607 61 75 2.0 3.0 0.34 0.42 0.00 90 1013.2
20260831040107 61 74 2.0 5.0 0.34 0.42 0.00 90 1013.2
20260831035610 61 103 1.0 3.0 0.34 0.42 0.00 90 1013.5
20260831035107 61 122 0.0 5.0 0.38 0.41 0.00 90 1013.5
20260831034613 61 96 1.0 39.0 0.38 0.39 0.00 89 1013.5
20260831034113 61 325 3.0 54.0 0.36 0.36 0.00 89 1013.9
20260831033607 61 233 2.0 6.0 0.35 0.35 0.00 89 1013.9
20260831033113 61 248 2.0 7.0 0.34 0.34 0.00 88 1013.9
20260831032610 61 241 2.0 12.0 0.27 0.27 0.00 87 1014.6
20260831032107 61 248 3.0 10.0 0.15 0.15 0.00 86 1014.6
20260831031607 62 193 3.0 7.0 0.10 0.10 0.00 84 1013.2
20260831031110 61 172 2.0 6.0 0.08 0.08 0.00 84 1012.1
20260831030613 61 105 1.0 4.0 0.08 0.08 0.00 85 1011.8
20260831030110 61 282 1.0 4.0 0.08 0.08 0.00 84 1012.1
20260831025613 62 328 2.0 4.0 0.07 0.07 0.00 83 1012.1
20260831025110 62 320 1.0 3.0 0.03 0.03 0.00 80 1012.1
20260831024607 62 195 1.0 2.0 0.00 0.00 0.00 77 1012.1
20260831024110 62 195 1.0 3.0 0.00 0.00 0.00 77 1012.1
20260831023613 62 162 2.0 3.0 0.00 0.00 0.00 78 1012.1
20260831023113 62 158 1.0 3.0 0.00 0.00 0.00 78 1012.1
20260831022607 62 171 1.0 3.0 0.00 0.00 0.00 78 1012.1
20260831022110 62 172 1.0 2.0 0.00 0.00 0.00 78 1012.5
20260831021613 62 256 0.0 2.0 0.00 0.00 0.00 78 1012.5
20260831021107 62 329 1.0 2.0 0.00 0.00 0.00 78 1012.5
20260831020610 61 171 0.0 1.0 0.00 0.00 0.00 79 1012.9
20260831020108 61 73 0.0 2.0 0.00 0.00 0.00 79 1012.5
20260831015607 61 82 0.0 1.0 0.00 0.00 0.00 79 1012.5
20260831015110 61 303 0.0 1.0 0.00 0.00 0.00 79 1012.9
20260831014607 61 243 1.0 1.0 0.00 0.00 0.00 80 1012.9
20260831014110 61 97 0.0 3.0 0.00 0.00 0.00 80 1012.9
20260831013607 61 193 1.0 3.0 0.00 0.00 0.00 80 1013.2
20260831013110 61 356 1.0 3.0 0.00 0.00 0.00 80 1012.9
20260831012607 60 344 1.0 2.0 0.00 0.00 0.00 81 1012.9
20260831012113 60 81 1.0 3.0 0.00 0.00 0.00 80 1013.2
20260831011607 60 164 1.0 4.0 0.00 0.00 0.00 80 1013.2
20260831011107 60 104 2.0 4.0 0.00 0.00 0.00 80 1013.2
20260831010607 60 93 2.0 3.0 0.00 0.00 0.00 80 1013.2
20260831010110 60 73 1.0 1.0 0.00 0.00 0.00 80 1013.2